{"data":{"norad_id":63966,"epoch":"2026-05-25T03:45:13.360032Z","epoch_age_seconds":51764,"freshness":"FRESH","line1":"1 63966U 25099Q   26145.15640463  .00022303  00000+0  81715-3 0  9996","line2":"2 63966  43.0016 104.1335 0001408 268.9198  91.1492 15.27595979 59031","mean_motion":15.27595979,"eccentricity":0.0001408,"inclination_deg":43.0016,"raan_deg":104.1335,"arg_perigee_deg":268.9198,"mean_anomaly_deg":91.1492,"bstar":0.00081715,"rev_number":5903,"period_min":94.265762662105,"perigee_km":482.03520131677,"apogee_km":483.96729784785,"semimajor_km":6861.1382495823,"source":"CELESTRAK","updated_at":"2026-05-25T13:38:20.213745Z"}}